Wind_Speed
18 19 21 16 14 4 9 17 23 23 15 28 26 19 22 19 23 21 15 7 4 17 19 19 13 15 14 7 2 2 5 9 7 14 9 11 7 3 2 9 7 5 9 12 9
15 17 18 20 11 11 9 18 24 20 16 23 21 19 23 26 17 13 11 13 15 19 14 19 19 20 12 5 2 3 6 6 8 7 12 11 9 7 6 10 10 11 11 10 8
14 17 18 18 14 14 16 22 28 23 26 22 20 22 32 23 14 4 11 15 18 21 14 16 19 17 11 7 3 4 4 9 6 7 10 8 8 3 9 6 6 11 10 7 6
16 17 17 17 19 18 29 27 30 25 24 24 22 28 26 6 4 2 10 13 17 18 14 18 21 15 11 8 2 6 5 5 6 4 5 6 4 6 4 7 6 9 7 5 3
24 22 19 18 20 16 27 24 23 23 22 24 28 23 11 10 9 2 11 15 17 17 10 18 21 13 10 8 11 13 10 11 9 9 8 4 5 5 7 6 5 5 5 4 4
27 25 21 21 18 20 16 22 22 24 25 27 23 14 12 15 8 5 12 16 12 12 10 14 9 6 11 8 2 9 15 13 8 9 7 3 3 2 6 5 6 5 6 6 5
24 24 22 19 21 20 18 26 28 27 24 21 22 19 24 13 11 7 12 15 17 10 11 11 10 4 13 13 14 17 11 9 6 4 3 1 4 7 7 6 7 8 8 8 8
27 26 25 23 22 30 28 21 21 22 22 21 17 11 11 12 10 14 12 14 13 12 12 13 12 13 7 17 8 4 7 7 4 1 2 2 4 8 8 8 10 9 10 10 10
22 23 22 21 19 25 23 20 20 17 18 13 11 11 10 9 9 11 11 13 15 15 16 14 9 9 9 10 7 4 7 9 5 3 2 5 4 7 9 10 12 12 12 12 12
14 20 20 21 22 19 16 24 19 15 13 12 8 8 8 6 12 10 14 10 9 13 11 6 5 6 7 2 5 7 6 5 6 3 4 7 11 5 10 13 15 14 14 13 12
22 16 18 13 11 11 5 6 6 13 30 21 15 22 10 9 10 10 11 8 7 5 4 6 7 7 6 2 2 6 5 6 4 3 4 9 12 11 12 18 19 20 17 15 12
16 15 15 14 14 9 10 13 9 10 18 21 20 18 14 9 10 10 10 4 5 5 10 6 7 5 3 4 6 4 6 4 4 2 4 8 16 15 16 20 21 19 18 15 11
16 12 9 14 18 23 22 18 10 8 6 13 15 11 8 12 9 12 8 6 12 9 7 8 7 2 6 7 8 8 3 3 4 4 3 9 12 14 9 7 10 13 13 12 11
12 10 6 8 11 15 11 7 5 6 3 10 10 9 9 2 6 10 7 4 5 8 9 9 4 4 6 7 6 3 4 3 4 3 2 3 5 9 7 10 10 11 12 12 11
12 10 8 6 3 3 6 6 5 4 3 8 5 4 9 7 3 10 11 12 9 6 2 2 6 6 8 4 4 3 2 3 3 2 3 5 3 5 5 9 12 11 13 12 11
10 9 9 7 3 4 4 2 3 2 3 3 4 5 3 12 5 4 6 9 5 13 15 9 4 5 4 6 7 7 1 1 2 2 3 3 3 2 7 5 1 2 9 10 9
8 9 11 9 4 4 2 2 3 3 1 3 5 4 6 7 6 4 5 7 3 4 4 5 5 3 2 3 3 1 2 2 2 2 4 2 3 11 6 3 2 3 5 7 8
10 8 10 10 4 1 3 1 5 2 2 2 2 8 5 5 4 4 3 3 6 4 3 3 2 0 3 2 0 1 1 1 4 2 4 3 6 3 2 1 5 7 7 7 8
7 4 10 9 5 3 1 5 4 3 5 4 4 3 3 3 1 2 3 2 3 5 1 3 3 3 2 1 1 2 2 2 3 1 3 5 5 13 11 10 9 8 7 7 6
3 1 10 6 5 6 4 5 3 3 3 1 2 2 3 3 3 2 3 2 2 3 4 2 3 1 3 1 2 3 3 2 2 3 5 4 5 5 3 4 6 11 7 4 2
4 1 12 5 7 5 4 5 6 3 1 3 2 3 4 3 2 2 3 2 0 2 3 1 0 3 2 7 7 4 3 5 3 3 3 5 3 4 4 5 4 9 9 7 6
3 1 11 6 2 4 5 5 5 4 2 3 3 4 2 1 2 3 1 4 3 1 1 2 1 3 4 3 3 9 8 9 4 4 4 4 7 5 4 3 5 8 10 10 10
2 2 9 5 3 4 4 4 2 3 2 1 2 1 2 3 1 2 2 3 4 2 1 2 2 2 4 5 3 6 9 10 8 1 8 4 4 2 2 3 7 11 11 11 14
2 1 5 8 6 9 6 4 3 2 2 1 3 2 3 2 1 4 3 3 4 3 0 2 2 6 3 2 1 4 8 13 11 6 7 14 15 19 17 13 12 12 15 17 21
5 3 2 2 5 7 2 3 6 3 0 2 2 3 1 2 3 3 3 3 4 4 3 3 5 8 11 13 13 16 16 14 18 21 11 13 17 21 15 13 19 20 22 23 20
3 1 3 3 1 2 2 4 4 4 5 3 2 5 3 1 2 1 5 5 4 8 6 3 4 6 7 13 13 17 19 21 23 23 27 26 31 25 28 14 4 6 10 12 16
5 4 1 2 2 2 1 4 7 6 3 1 2 2 5 4 2 1 2 2 2 4 8 4 3 4 5 1 10 15 18 22 19 20 21 21 26 20 18 19 21 19 19 20 20
Wind_Direction
12 18 26 44 53 110 60 174 181 170 148 183 153 156 162 158 141 130 139 160 145 162 149 154 149 150 156 152 95 244 203 177 170 177 143 156 151 122 110 119 83 65 92 122 135
21 26 30 31 60 77 56 143 151 158 169 145 151 155 145 135 139 141 157 167 158 153 146 156 154 153 153 141 21 278 229 98 5 34 145 154 153 129 149 133 111 105 109 119 122
34 31 31 44 50 45 89 110 150 141 149 149 147 151 134 134 141 106 165 162 158 151 148 159 152 155 149 159 29 19 73 122 66 50 131 131 131 126 150 135 109 137 134 131 127
41 36 29 45 46 77 90 98 111 123 132 136 139 139 127 129 169 323 160 158 159 153 138 154 159 157 156 155 116 111 85 112 113 78 128 124 124 99 56 100 111 128 142 147 156
46 45 46 46 53 86 87 110 113 125 132 132 133 132 101 93 50 49 142 144 147 145 141 159 163 148 141 131 103 107 114 97 98 92 78 119 94 102 122 132 142 157 170 188 203
39 48 52 63 75 88 95 114 118 124 127 131 123 103 114 80 20 77 128 135 134 141 122 158 161 143 110 99 27 123 119 111 88 85 73 139 119 193 172 166 174 186 203 214 221
50 57 61 71 90 94 110 118 119 122 126 123 102 99 87 70 30 67 123 130 135 137 124 123 123 181 128 104 116 128 116 116 77 77 71 55 204 221 157 175 199 212 220 227 244
49 59 67 67 103 100 95 99 117 118 124 123 95 96 80 74 64 74 97 115 129 139 145 110 104 93 94 119 127 138 166 161 85 359 91 250 245 163 189 195 215 223 234 244 255
50 58 62 59 99 110 81 87 117 117 115 114 77 90 76 65 76 52 83 100 119 127 121 108 91 91 130 130 130 207 189 200 140 54 298 225 244 152 200 214 230 235 244 253 263
53 65 70 77 87 116 84 84 92 100 105 72 55 72 48 39 84 69 107 99 102 110 95 66 94 121 139 122 168 179 167 197 188 74 247 241 254 188 215 230 240 245 252 259 262
54 56 78 81 64 87 75 69 74 46 61 65 68 89 76 63 72 63 99 97 84 93 100 30 120 115 87 58 25 153 180 178 71 41 305 251 268 268 238 236 248 252 254 256 251
43 45 62 70 42 77 80 79 79 118 74 61 70 70 59 35 86 53 59 113 95 93 117 98 99 78 83 88 96 136 142 101 119 38 308 298 284 270 251 243 244 254 256 249 240
38 63 74 46 79 89 88 83 84 85 101 40 39 40 39 49 44 14 37 72 78 70 92 92 91 107 104 88 99 55 45 88 5 326 254 305 273 254 229 260 243 244 246 235 229
36 32 47 69 75 87 68 28 27 38 83 11 4 22 3 39 64 27 42 43 66 89 72 68 52 94 97 73 353 124 34 48 20 11 280 342 288 272 248 216 217 228 221 222 220
26 23 15 31 45 4 310 326 359 28 101 358 8 21 26 61 119 23 27 60 73 72 232 74 79 71 59 20 356 98 85 61 47 62 329 192 253 259 246 258 240 228 221 215 217
23 23 16 7 355 317 323 13 28 36 84 9 5 8 73 43 49 52 62 79 73 69 74 89 77 39 69 59 66 130 137 74 100 111 250 133 246 258 249 279 152 217 197 211 220
10 9 9 3 313 318 352 56 45 43 272 69 43 59 81 37 50 38 58 53 69 88 33 73 33 76 34 88 113 352 256 325 241 204 278 130 238 256 256 219 232 145 173 211 249
343 351 359 358 354 7 90 220 56 52 49 82 66 76 69 17 54 46 93 93 66 52 128 158 166 34 18 41 52 135 173 267 272 283 332 161 238 261 333 238 240 244 238 256 266
339 355 2 8 18 87 221 51 39 79 124 138 134 61 91 75 73 98 52 61 32 2 77 152 121 127 64 42 7 140 226 29 302 141 262 244 261 269 244 244 228 222 235 258 261
19 108 2 17 60 92 75 97 96 75 105 270 130 304 139 117 177 204 176 58 93 14 341 103 108 203 113 223 173 269 137 169 179 279 270 237 250 252 282 268 231 209 207 200 257
78 164 356 23 80 56 81 83 112 106 19 3 78 118 94 124 81 88 85 127 83 101 2 140 96 137 189 211 191 169 209 222 301 255 277 301 260 191 236 245 190 179 194 217 268
61 0 360 48 353 50 63 108 122 132 110 99 89 72 61 99 117 103 84 48 104 159 107 55 315 193 213 104 275 257 246 217 244 174 244 304 273 351 297 257 253 249 245 256 277
31 35 10 87 74 83 107 97 58 140 128 141 110 19 164 141 139 115 154 125 148 157 38 118 211 249 190 183 188 238 221 236 245 333 239 262 254 77 24 305 272 269 270 264 291
25 12 33 55 62 116 132 135 115 65 92 73 109 131 165 171 38 159 152 149 183 179 28 188 260 245 283 341 328 217 223 224 217 233 256 231 271 268 285 293 284 277 274 280 297
36 62 39 57 80 108 116 149 142 153 188 192 169 242 226 164 183 191 151 162 183 193 208 265 253 249 265 268 259 253 254 233 222 230 249 267 264 272 284 289 287 281 278 283 288
42 3 74 76 22 166 171 162 180 147 172 194 256 179 192 249 321 237 178 201 215 188 208 210 279 301 280 260 258 265 257 248 246 243 246 262 273 282 286 307 341 324 308 288 284
37 60 18 142 147 273 39 159 178 163 172 131 211 223 219 252 255 189 220 285 304 195 207 219 273 310 275 204 283 276 255 238 242 244 246 251 257 280 291 291 298 303 295 288 287
Height
1449 1445 1440 1435 1430 1428 1426 1427 1433 1439 1442 1448 1454 1461 1463 1472 1476 1480 1484 1486 1486 1487 1491 1495 1499 1503 1507 1510 1510 1510 1502 1502 1505 1505 1515 1522 1523 1528 1529 1530 1533 1535 1535 1539 1541
1450 1447 1443 1439 1433 1430 1428 1428 1434 1440 1447 1452 1458 1462 1464 1475 1481 1482 1482 1482 1484 1487 1492 1496 1500 1504 1508 1510 1511 1507 1499 1504 1516 1514 1515 1522 1523 1527 1529 1532 1535 1537 1539 1541 1542
1453 1450 1446 1445 1439 1435 1431 1433 1438 1442 1450 1458 1461 1466 1470 1477 1485 1484 1483 1484 1486 1489 1493 1500 1502 1505 1509 1511 1514 1513 1507 1518 1523 1522 1521 1525 1528 1529 1528 1530 1535 1538 1540 1542 1543
1458 1454 1449 1448 1446 1442 1439 1440 1443 1450 1456 1461 1466 1472 1476 1481 1482 1485 1484 1486 1489 1490 1494 1498 1503 1505 1508 1510 1514 1518 1522 1520 1527 1528 1527 1526 1530 1531 1531 1536 1538 1539 1541 1542 1543
1464 1459 1455 1450 1449 1448 1449 1450 1454 1458 1462 1466 1470 1476 1478 1484 1487 1487 1486 1487 1490 1494 1498 1500 1502 1505 1507 1512 1514 1517 1523 1525 1528 1529 1530 1531 1532 1533 1536 1537 1538 1538 1539 1541 1542
1471 1466 1461 1459 1457 1455 1456 1459 1462 1465 1468 1472 1476 1479 1483 1486 1489 1488 1487 1491 1493 1497 1498 1502 1504 1506 1509 1514 1513 1520 1522 1526 1530 1530 1532 1531 1534 1534 1536 1536 1538 1538 1539 1540 1540
1478 1474 1470 1467 1465 1464 1465 1466 1469 1472 1476 1478 1479 1482 1483 1491 1492 1494 1492 1493 1494 1500 1500 1503 1506 1508 1511 1516 1521 1523 1524 1527 1530 1531 1533 1533 1532 1531 1534 1535 1536 1537 1537 1538 1538
1483 1479 1476 1475 1473 1474 1475 1477 1478 1479 1481 1482 1485 1485 1490 1494 1498 1496 1495 1495 1497 1500 1503 1505 1507 1509 1513 1518 1523 1522 1521 1523 1532 1532 1534 1533 1525 1528 1533 1534 1534 1534 1535 1536 1537
1488 1486 1484 1482 1481 1481 1482 1483 1483 1484 1486 1487 1487 1489 1495 1498 1497 1496 1498 1501 1501 1503 1505 1507 1509 1514 1518 1517 1521 1525 1519 1515 1531 1535 1535 1532 1522 1527 1532 1532 1532 1531 1532 1533 1534
1496 1494 1492 1490 1488 1489 1489 1488 1490 1490 1490 1489 1492 1494 1501 1503 1502 1505 1504 1505 1506 1507 1509 1511 1513 1515 1516 1521 1528 1523 1519 1517 1520 1535 1534 1529 1526 1526 1530 1531 1530 1528 1528 1529 1531
1502 1500 1498 1497 1495 1494 1492 1491 1495 1498 1497 1501 1503 1500 1505 1507 1509 1507 1506 1508 1508 1511 1512 1515 1513 1521 1524 1525 1520 1516 1518 1520 1529 1538 1536 1525 1522 1522 1523 1526 1526 1525 1525 1526 1528
1508 1504 1503 1502 1498 1496 1496 1496 1500 1504 1507 1508 1508 1508 1509 1509 1509 1509 1511 1513 1513 1515 1514 1518 1529 1534 1531 1527 1522 1521 1523 1527 1537 1539 1537 1525 1523 1518 1517 1516 1519 1521 1521 1522 1525
1511 1508 1506 1505 1504 1502 1501 1502 1504 1504 1507 1512 1512 1512 1513 1514 1516 1517 1517 1517 1514 1518 1515 1518 1535 1536 1530 1529 1528 1534 1528 1534 1535 1537 1538 1535 1516 1506 1507 1513 1516 1517 1519 1520 1522
1512 1510 1508 1507 1509 1508 1507 1507 1507 1506 1508 1519 1517 1518 1518 1517 1520 1520 1519 1521 1521 1526 1525 1532 1539 1536 1535 1538 1540 1534 1546 1544 1543 1544 1539 1538 1529 1504 1501 1507 1512 1513 1515 1517 1519
1514 1512 1511 1510 1510 1511 1512 1509 1508 1509 1508 1525 1523 1522 1521 1520 1524 1523 1522 1522 1524 1528 1528 1544 1540 1539 1542 1549 1547 1549 1550 1548 1549 1550 1552 1536 1546 1509 1501 1503 1502 1506 1511 1514 1516
1515 1514 1513 1512 1511 1511 1510 1509 1511 1516 1523 1527 1525 1523 1522 1523 1525 1526 1525 1525 1529 1531 1535 1543 1546 1546 1548 1551 1548 1551 1549 1549 1551 1557 1547 1532 1542 1514 1499 1498 1502 1505 1508 1512 1514
1516 1515 1513 1511 1511 1510 1510 1512 1518 1515 1534 1528 1527 1525 1526 1528 1528 1528 1529 1529 1529 1542 1548 1543 1549 1550 1551 1548 1551 1550 1547 1549 1544 1546 1528 1560 1552 1513 1500 1504 1504 1505 1509 1511 1513
1516 1514 1513 1511 1509 1509 1510 1512 1516 1527 1530 1530 1528 1526 1529 1532 1534 1532 1531 1532 1534 1533 1543 1540 1551 1550 1553 1552 1552 1554 1555 1544 1540 1530 1521 1555 1530 1504 1500 1503 1505 1507 1509 1511 1512
1515 1515 1513 1511 1510 1510 1512 1518 1520 1526 1527 1528 1529 1532 1530 1533 1533 1533 1534 1534 1537 1537 1535 1536 1548 1554 1555 1553 1554 1552 1551 1552 1552 1548 1545 1515 1505 1497 1497 1501 1505 1506 1508 1509 1510
1515 1514 1514 1512 1511 1511 1513 1523 1527 1530 1531 1530 1530 1527 1527 1533 1532 1531 1533 1539 1539 1541 1540 1537 1549 1551 1554 1555 1555 1554 1552 1553 1554 1545 1532 1506 1512 1510 1508 1502 1500 1503 1505 1507 1508
1513 1516 1514 1512 1512 1514 1518 1523 1529 1532 1532 1529 1528 1528 1528 1530 1532 1534 1535 1541 1540 1541 1541 1539 1539 1554 1555 1551 1549 1555 1551 1550 1546 1540 1532 1520 1503 1503 1511 1502 1500 1501 1504 1505 1505
1514 1516 1515 1513 1516 1516 1520 1525 1529 1531 1531 1531 1531 1531 1529 1532 1531 1537 1535 1537 1542 1542 1539 1543 1540 1547 1545 1546 1548 1544 1542 1540 1540 1536 1536 1537 1516 1498 1500 1502 1503 1503 1503 1503 1502
1517 1517 1515 1514 1517 1521 1529 1530 1531 1531 1531 1531 1531 1532 1533 1532 1534 1534 1539 1542 1542 1542 1541 1542 1538 1539 1540 1547 1548 1546 1541 1541 1539 1545 1538 1534 1506 1499 1501 1501 1502 1502 1500 1499 1500
1519 1518 1519 1518 1522 1522 1526 1530 1532 1534 1534 1533 1533 1534 1533 1533 1534 1535 1539 1542 1543 1543 1544 1544 1538 1536 1530 1535 1535 1543 1538 1537 1539 1538 1522 1515 1507 1498 1500 1500 1499 1498 1498 1497 1495
1520 1524 1524 1520 1523 1524 1525 1528 1530 1533 1535 1535 1535 1534 1533 1533 1533 1533 1540 1541 1544 1544 1544 1543 1540 1533 1530 1528 1528 1528 1528 1527 1533 1528 1520 1503 1499 1487 1493 1493 1493 1493 1492 1491 1490
1524 1525 1525 1526 1528 1526 1527 1527 1527 1531 1532 1534 1534 1532 1535 1533 1533 1533 1535 1538 1537 1543 1543 1542 1537 1535 1533 1522 1522 1521 1517 1517 1516 1515 1512 1513 1497 1495 1491 1490 1490 1490 1488 1487 1486
1525 1525 1526 1528 1526 1526 1526 1527 1526 1529 1533 1533 1533 1534 1535 1535 1536 1536 1536 1537 1537 1538 1540 1540 1537 1534 1524 1523 1521 1514 1497 1500 1504 1504 1504 1505 1484 1489 1488 1488 1486 1485 1484 1483 1482